Satellite: NOAA 17
Catalog number: 27453
Epoch time:      103021.93787422
Element set:     279 
Inclination:       98.7613 deg
RA of node:        93.2877 deg
Eccentricity:    0.0012650
Arg of perigee:    77.9641 deg
Mean anomaly:     282.2953 deg
Mean motion:   14.23276753 rev/day
Decay rate:    3.6100E-006 rev/day^2
Epoch rev:            3003
Checksum:              314

Satellite: HOT BIRD 6
Catalog number: 27499
Epoch time:      103013.80550721
Element set:     66 
Inclination:        0.0928 deg
RA of node:        32.8693 deg
Eccentricity:    0.0008090
Arg of perigee:   290.3889 deg
Mean anomaly:      92.5421 deg
Mean motion:    1.00271722 rev/day
Decay rate:    1.0600E-006 rev/day^2
Epoch rev:             147
Checksum:              269

Satellite: RUBIN 2
Catalog number: 27605
Epoch time:      103021.78141330
Element set:     35 
Inclination:       64.5531 deg
RA of node:       281.6169 deg
Eccentricity:    0.0030357
Arg of perigee:   122.1373 deg
Mean anomaly:     238.2669 deg
Mean motion:   14.71388873 rev/day
Decay rate:    9.6399E-006 rev/day^2
Epoch rev:             472
Checksum:              306

Satellite: STS-107
Catalog number: 27647
Epoch time:      103022.58333333
Element set:     28 
Inclination:       39.0164 deg
RA of node:       189.6316 deg
Eccentricity:    0.0010349
Arg of perigee:    44.8390 deg
Mean anomaly:     322.4470 deg
Mean motion:   15.99247182 rev/day
Decay rate:    6.2061E-004 rev/day^2
Epoch rev:              94
Checksum:              295


Read previous mail | Read next mail


 11.06.2026 15:43:32lGo back Go up